Ross County (RZT)

 

Airport Diagram
No Airport Diagram Available
Current Weather/Forecast (VFR Conditions)
METAR KRZT 211335Z AUTO 24010KT 10SM CLR 02/M02 A2985 RMK AO2 PWINO
TAF

Airport Information

All Charts
General
Chart Name View
TAKEOFF MINIMUMS
ALTERNATE MINIMUMS
TAKEOFF MINIMUMS
ALTERNATE MINIMUMS

Approaches
Chart Name Download
RNAV (GPS) RWY 23
VOR RWY 23
RNAV (GPS) RWY 23
VOR RWY 23


Airport Statistics
Departures Arrivals Local
All Collected Stats since June 2016: 2 8 0
2021 Stats: 0 0 0
January Stats: 0 0 0

Inbound Traffic (Arrivals) - 0

No inbound traffic.


Outbound Traffic (Departures) - 0

No outbound traffic.


Local Traffic (Pattern) - 0

No local traffic.